Location: Newark
(42.8481°N, 0.4872°E)
Time: 07:24:53
(UTC+00:00)

Transit 2A Rocket - Pass Details

Date: 27 October 2020
Orbit: 588 x 914 km, 66.7° (Epoch: 29 November)

Event Time Altitude Azimuth Distance (km) Brightness Sun altitude
Rises 16:45:56 0° 337° (NNW) 3,349 8.4 1.1°
Reaches altitude 10° 16:49:29 10° 359° (N) 2,342 7.4 0.4°
Maximum altitude 16:52:41 16° 36° (NE) 1,903 6.6 -0.1°
Drops below altitude 10° 16:55:42 10° 73° (ENE) 2,203 6.7 -0.6°
Sets 16:58:53 0° 96° (E) 3,048 7.5 -1.2°
